Location: Newark
(35.0033°N, 81.0878°W)
Time: 11:26:49
(UTC+00:00)

Hubble Space Telescope - Visible Passes

Search period start: 23 July 2019 00:00
Search period end: 02 August 2019 00:00
Orbit: 536 x 540 km, 28.5° (Epoch: 22 July)

Date Brightness Start Highest point End Pass type
(mag) Time Alt. Az. Time Alt. Az. Time Alt. Az.
28 Jul 3.2 08:31:22 11° SE 08:31:22 11° SE 08:32:00 10° SE visible
29 Jul 3.2 08:21:20 12° SE 08:21:20 12° SE 08:22:07 10° SE visible
29 Jul 2.0 09:56:56 10° SW 10:00:31 29° S 10:04:06 10° ESE visible
30 Jul 3.3 08:11:18 12° SE 08:11:18 12° SE 08:11:57 10° ESE visible
30 Jul 1.8 09:46:38 12° SW 09:49:55 31° S 09:53:35 10° ESE visible
31 Jul 3.4 08:01:18 11° ESE 08:01:18 11° ESE 08:01:38 10° ESE visible
31 Jul 1.7 09:36:37 16° SW 09:39:19 32° S 09:43:02 10° ESE visible
01 Aug 1.7 09:26:39 21° SW 09:28:43 33° S 09:32:27 10° ESE visible
